Tracking 27428 objects as of 31-May-2023
HD Live streaming from Space Station
objects crossing your sky now

SL-12 R/B(2)

Track SL-12 R/B(2) now!


NORAD ID: 25743
Int'l Code: 1999-027D
Perigee: 6,955.6 km
Apogee: 35,796.9 km
Inclination: 18.3 °
Period: 766.6 minutes
Semi major axis: 27747 km
RCS: 23.7189 m2 (large)
Launch date: May 20, 1999
Source: Commonwealth of Independent States (former USSR) (CIS)
Launch site: TYURATAM MISSILE AND SPACE COMPLEX (TTMTR)

Note: This is a ROCKET BODY
Your satellite tracking list
Your tracking list is empty




NASA's NSSDC Master Catalog

Two Line Element Set (TLE):
1 25743U 99027D   23151.14372997 -.00000083  00000-0  00000-0 0  9994
2 25743  18.3450 355.7140 5197151 319.8035 173.1065  1.87833724164969
Source of the keplerian elements: AFSPC